Home   Weather   Holguín   Past weeks

Flag for Cuba Past Weather in Holguín, Cuba — Yesterday and Last 2 Weeks

Now
68 °F

Fog.


Feels Like: 68 °F
Forecast: 64 / 85 °F
Wind: 1 mph from North

Location: Holguin Civ / Mil

Current Time: Feb 24, 2017 at 3:11:22 am

Latest Report: Feb 24, 2017 at 1:50 am


Visibility: 4 mi

Pressure: 29.80 "Hg

Humidity: 83%

Dew Point: 63 °F

Location of HolguínLocation

Past Weather in Holguín — Graph

°F

Holguín Temperature Yesterday

Maximum temperature yesterday: 86 °F (at 1:50 pm)
Minimum temperature yesterday: 66 °F (at 5:51 am)
Average temperature yesterday: 73 °F

High & Low Weather Summary for the Past Weeks

 TemperatureHumidityPressure
High91 °F (Feb 16, 3:51 pm)94% (Feb 9, 3:50 am)30.21 "Hg (Feb 9, 3:50 am)
Low57 °F (Feb 14, 6:55 am)21% (Feb 16, 3:51 pm)29.71 "Hg (Feb 23, 1:50 pm)
Average75 °F67%30.01 "Hg
* Reported Feb 9 12:50 am — Feb 24 12:52 am, Holguín, Weather by CustomWeather, © 2017

Note: Actual official high and low records may vary slightly from our data, if they occured in-between our weather recording intervals... More about our weather records

Advertising

Holguín Weather History for the Previous 24 Hours

Scroll right to see more
 ConditionsComfort  
Time TempWeatherWind HumidityBarometerVisibility
12:52 am
Fri, Feb 24
68 °FFog.3 mph83%29.83 "Hg5 mi
11:50 pm
Thu, Feb 23
68 °FFog.6 mph83%29.83 "Hg5 mi
10:50 pm70 °FPassing clouds.6 mph78%29.83 "Hg6 mi
9:50 pm70 °FClear.6 mph78%29.83 "Hg10 mi
8:50 pm72 °FPassing clouds.5 mph73%29.80 "HgN/A
7:50 pm73 °FPassing clouds.6 mph69%29.80 "HgN/A
6:50 pm75 °FPassing clouds.9 mph61%29.77 "HgN/A
5:50 pm79 °FPassing clouds.15 mph51%29.77 "HgN/A
4:50 pm82 °FPassing clouds.17 mph42%29.74 "HgN/A
3:50 pm84 °FPassing clouds.15 mph43%29.71 "HgN/A
2:51 pm86 °FPassing clouds.28 mph38%29.71 "HgN/A
1:50 pm86 °FScattered clouds.31 mph35%29.71 "HgN/A
12:50 pm84 °FScattered clouds.14 mph40%29.74 "HgN/A
11:50 am82 °FScattered clouds.15 mph48%29.77 "HgN/A
10:50 am77 °FPartly sunny.9 mph69%29.80 "HgN/A
9:51 am72 °FBroken clouds.6 mph83%29.80 "Hg6 mi
8:51 am68 °FBroken clouds.3 mph94%29.80 "Hg5 mi
8:02 am66 °FLight rain. Mostly cloudy.5 mph94%N/A3 mi
7:50 am66 °FRain. Mostly cloudy.6 mph94%29.80 "Hg2 mi
7:30 am66 °FRain. Mostly cloudy.8 mph94%29.83 "Hg2 mi
6:50 am66 °FLight rain. Mostly cloudy.8 mph94%N/A3 mi
6:32 am66 °FRain. Partly sunny.8 mph94%29.80 "Hg2 mi
5:51 am66 °FLight rain. Partly cloudy.7 mph94%29.77 "Hg4 mi
4:53 am70 °FPassing clouds.2 mph83%29.74 "Hg5 mi
3:51 am70 °FPassing clouds.5 mph83%29.74 "Hg6 mi
Weather by CustomWeather, © 2017

See weather overviewHow to use our weather pages